DW4640 Weather Reports


time (UTC)temp
C
wind
direction
speed
KPH
gust
KPH
rain 1hr
cm
rain 24hr
cm
rain mn
cm
humidity
%
barometer
mb
20260507070009 9 306 0.0 4.8 0.00 0.58 0.00 7 1005.6
20260507064605 9 280 0.0 9.7 0.00 0.58 0.00 7 1005.8
20260507063047 9 284 0.0 3.2 0.00 0.58 0.58 6 1005.5
20260507061538 10 290 0.0 1.6 0.00 0.58 0.58 3 1005.7
20260507060017 10 284 1.6 6.4 0.00 0.58 0.58 3 1005.8
20260507054545 10 271 0.0 4.8 0.00 0.58 0.58 100 1005.8
20260507053040 10 290 1.6 4.8 0.00 0.58 0.58 100 1005.9
20260507051535 10 276 0.0 3.2 0.00 0.58 0.58 100 1005.5
20260507050013 11 262 0.0 6.4 0.00 0.58 0.58 100 1005.3
20260507044540 11 288 0.0 6.4 0.00 0.58 0.58 100 1005.7
20260507043038 11 285 1.6 9.7 0.00 0.58 0.58 100 1005.6
20260507041546 11 279 0.0 3.2 0.00 0.58 0.58 100 1005.3
20260507040008 12 288 1.6 4.8 0.00 0.58 0.58 100 1005.2
20260507034549 12 262 0.0 9.7 0.00 0.58 0.58 2 1004.8
20260507033012 13 305 3.2 9.7 0.00 0.58 0.58 100 1005.0
20260507031546 13 300 0.0 8.0 0.00 0.58 0.58 100 1004.9
20260507030005 15 277 1.6 6.4 0.00 0.58 0.58 100 1004.6
20260507024544 15 288 0.0 6.4 0.00 0.58 0.58 100 1004.4
20260507023005 15 248 0.0 4.8 0.00 0.58 0.58 100 1004.2
20260507021552 15 250 0.0 3.2 0.00 0.58 0.58 100 1004.2
20260507020044 15 266 3.2 8.0 0.00 0.58 0.58 100 1004.4
20260507014553 15 284 1.6 6.4 0.00 0.58 0.58 100 1004.5
20260507013038 15 240 0.0 4.8 0.00 0.58 0.58 100 1004.6
20260507011531 15 101 3.2 6.4 0.00 0.58 0.58 100 1004.7
20260507010013 15 225 0.0 6.4 0.00 0.58 0.58 100 1004.6
20260507004549 15 233 1.6 9.7 0.00 0.58 0.58 100 1004.6
20260507003026 15 249 1.6 6.4 0.03 0.58 0.58 100 1004.6
20260507001607 15 210 0.0 8.0 0.03 0.58 0.58 100 1004.5
20260507000030 15 224 0.0 8.0 0.03 0.58 0.58 100 1004.4
20260506234547 15 233 1.6 8.0 0.03 0.58 0.58 100 1004.4
20260506233024 15 224 1.6 6.4 0.00 0.56 0.56 100 1004.3
20260506231602 15 152 1.6 8.0 0.00 0.56 0.56 100 1004.6
20260506230026 15 210 1.6 11.3 0.03 0.56 0.56 100 1004.6
20260506224504 15 268 1.6 12.9 0.08 0.56 0.56 100 1004.6
20260506223026 15 199 3.2 9.7 0.08 0.56 0.56 100 1004.6
20260506221510 15 105 3.2 8.0 0.13 0.56 0.56 100 1004.7
20260506220005 15 230 4.8 14.5 0.10 0.51 0.51 100 1005.0
20260506214610 15 160 1.6 8.0 0.13 0.48 0.48 100 1005.1
20260506213021 15 229 4.8 12.9 0.18 0.48 0.48 100 1005.1
20260506211558 15 118 3.2 17.7 0.18 0.43 0.43 100 1005.5
20260506210018 16 118 1.6 11.3 0.20 0.41 0.41 100 1005.2
20260506204506 16 136 0.0 4.8 0.15 0.36 0.36 100 1005.5
20260506203005 16 185 0.0 8.0 0.10 0.28 0.28 100 1005.6
20260506201507 16 146 0.0 8.0 0.10 0.25 0.25 100 1005.5
20260506200120 16 233 0.0 4.8 0.08 0.20 0.20 100 1005.3
20260506194511 16 132 0.0 4.8 0.13 0.20 0.20 100 1005.6
20260506193046 16 129 0.0 1.6 0.13 0.18 0.18 100 1005.7
20260506191506 16 281 0.0 1.6 0.15 0.15 0.15 100 1005.9
20260506190045 17 288 0.0 1.6 0.13 0.13 0.13 100 1006.1
20260506184504 17 296 0.0 3.2 0.08 0.08 0.08 100 1006.2
20260506183049 18 269 0.0 3.2 0.05 0.05 0.05 28 1006.0
20260506181547 21 243 6.4 14.5 0.00 0.00 0.00 62 1006.1
20260506180051 22 271 8.0 24.1 0.00 0.00 0.00 57 1005.5
20260506174529 22 238 3.2 20.9 0.00 0.00 0.00 57 1005.5
20260506173011 21 285 4.8 11.3 0.00 0.00 0.00 58 1005.8
20260506171516 22 233 1.6 16.1 0.00 0.00 0.00 60 1005.9
20260506170051 21 237 3.2 12.9 0.00 0.00 0.00 60 1006.1
20260506164536 21 226 1.6 11.3 0.00 0.00 0.00 61 1006.3
20260506163100 21 316 3.2 12.9 0.00 0.00 0.00 59 1006.5
20260506161547 21 276 4.8 17.7 0.00 0.00 0.00 59 1006.8
20260506160108 21 243 1.6 9.7 0.00 0.00 0.00 62 1007.3
20260506154537 21 231 1.6 14.5 0.00 0.00 0.00 62 1007.6
20260506153002 21 275 8.0 16.1 0.00 0.00 0.00 62 1007.8
20260506151543 20 213 3.2 9.7 0.00 0.00 0.00 63 1007.6
20260506150026 20 203 3.2 16.1 0.00 0.00 0.00 63 1007.9
20260506144547 20 248 4.8 17.7 0.00 0.00 0.00 63 1007.7
20260506143029 20 276 3.2 14.5 0.00 0.00 0.00 62 1007.8
20260506141553 19 185 1.6 9.7 0.00 0.00 0.00 62 1007.7
20260506140032 18 278 8.0 16.1 0.00 0.00 0.00 61 1007.8
20260506134617 18 238 1.6 19.3 0.00 0.00 0.00 61 1008.0
20260506133038 18 290 4.8 9.7 0.00 0.00 0.00 61 1008.1
20260506131527 18 277 3.2 9.7 0.00 0.00 0.00 60 1008.1
20260506130022 18 295 1.6 12.9 0.00 0.00 0.00 60 1008.2
20260506124512 18 262 1.6 9.7 0.00 0.00 0.00 60 1008.0
20260506123007 18 226 3.2 9.7 0.00 0.00 0.00 60 1008.3
20260506121507 17 227 1.6 4.8 0.00 0.00 0.00 55 1008.3
20260506120044 17 279 1.6 6.4 0.00 0.00 0.00 55 1008.6
20260506114533 17 289 1.6 12.9 0.00 0.00 0.00 55 1008.7
20260506113050 16 253 1.6 8.0 0.00 0.00 0.00 54 1008.6
20260506111531 16 208 0.0 8.0 0.00 0.00 0.00 53 1008.8
20260506110018 16 162 3.2 8.0 0.00 0.00 0.00 53 1008.7
20260506104515 16 225 3.2 11.3 0.00 0.00 0.00 53 1008.8
20260506103104 16 268 0.0 4.8 0.00 0.00 0.00 53 1008.8
20260506101542 16 116 1.6 8.0 0.00 0.00 0.00 53 1008.7
20260506100042 16 288 1.6 8.0 0.00 0.00 0.00 54 1008.7
20260506094540 16 291 3.2 9.7 0.00 0.00 0.00 55 1008.6
20260506093021 16 279 4.8 9.7 0.00 0.00 0.00 56 1008.7
20260506091544 16 271 0.0 6.4 0.00 0.00 0.00 57 1008.5
20260506090026 16 253 0.0 4.8 0.00 0.00 0.00 58 1008.4
20260506084604 16 254 1.6 8.0 0.00 0.00 0.00 60 1008.5
20260506083114 16 280 3.2 6.4 0.00 0.00 0.00 61 1008.5
20260506081552 16 216 0.0 4.8 0.00 0.00 0.00 62 1008.4
20260506073036 17 277 1.6 8.0 0.00 0.00 0.00 63 1008.0
20260506071507 17 280 1.6 9.7 0.00 0.00 0.00 63 1008.0